This demonstration page uses our WeatherBlox Daily Observations layout. Learn more.

Left ArrowRight Arrow

Hourly Observations for June 30, 2021

Temp ( °F °C ) Dew Point ( °F °C ) Humidity (%) Winds ( mph kmh ) Pressure ( in mb ) Visibility ( mi km ) Precip ( " mm )
12:53 am 00:53 Clear 71 21.7 43 6.1 36 36 ENE 6 9 29.94 1014 10 16 N/A
1:53 am 01:53 Clear 68 20 43 6.1 40 40 NE 7 11 29.94 1014 10 16 N/A
2:53 am 02:53 Clear 66 18.9 43 6.1 43 43 ENE 12 19 29.94 1014 10 16 N/A
3:53 am 03:53 Clear 62 16.7 46 7.8 56 56 ENE 6 9 29.95 1014 10 16 N/A
4:53 am 04:53 Clear 59 15 46 7.8 62 62 E 6 9 29.96 1014 10 16 N/A
5:53 am 05:53 Sunny 61 16.1 46 7.8 58 58 E 7 11 29.96 1014 10 16 N/A
6:53 am 06:53 Sunny 66 18.9 46 7.8 49 49 E 7 11 29.96 1015 10 16 N/A
7:53 am 07:53 Sunny 72 22.2 47 8.3 41 41 E 8 13 29.97 1015 10 16 N/A
8:53 am 08:53 Sunny 80 26.7 49 9.4 34 34 ENE 12 19 29.96 1015 10 16 N/A
9:53 am 09:53 Sunny 88 31.1 48 8.9 25 25 ENE 12 19 29.96 1015 10 16 N/A
10:53 am 10:53 Sunny 93 33.9 45 7.2 19 19 ENE 16 26 29.93 1013 10 16 N/A
11:14 am 11:14 Sunny 94 34.4 40 4.4 15 15 ESE 9 15 29.80 1009 10 16 N/A
11:53 am 11:53 Sunny 94 34.4 40 4.4 15 15 ESE 10 17 30.02 1017 10 16 N/A
12:53 pm 12:53 Sunny 96 35.6 40 4.4 14 14 E 14 22 29.93 1014 10 16 N/A
1:53 pm 13:53 Sunny 97 36.1 44 6.7 16 16 ESE 18 30 29.92 1013 10 16 N/A
2:53 pm 14:53 Sunny 96 35.6 42 5.6 15 15 E 21 33 29.92 1013 10 16 N/A
3:53 pm 15:53 Sunny 97 36.1 39 3.9 13 13 ESE 9 15 29.91 1013 10 16 N/A
4:53 pm 16:53 Sunny 97 36.1 42 5.6 15 15 ESE 15 24 29.91 1013 10 16 N/A
5:53 pm 17:53 Sunny 96 35.6 42 5.6 15 15 ESE 15 24 29.89 1012 10 16 N/A
6:53 pm 18:53 Sunny 94 34.4 44 6.7 18 18 E 20 31 29.88 1012 10 16 N/A
7:53 pm 19:53 Sunny 92 33.3 43 6.1 18 18 E 21 33 29.88 1012 10 16 N/A
8:53 pm 20:53 Sunny 87 30.6 45 7.2 23 23 E 16 26 29.87 1012 10 16 N/A
9:53 pm 21:53 Clear 83 28.3 42 5.6 24 24 E 14 22 29.96 1015 10 16 N/A
10:53 pm 22:53 Clear 81 27.2 42 5.6 25 25 E 14 22 29.87 1012 10 16 N/A
11:53 pm 23:53 Clear 80 26.7 44 6.7 28 28 E 16 26 29.87 1011 10 16 N/A

Powered by AerisWeather